User: anonymous   Login
Location: Brivio
(45.7333°N, 9.4500°E)
Time: 06:46:30
(UTC+00:00)
Language:

STARLINK-60 - Orbit

View from above orbital plane
View from above orbital plane
View from above satellite
View from above satellite

Ground track
Ground track

The orbit data is extracted from the following two-line orbital elements,

1 44273U 19029AQ  19340.46413074  .00014722  00000-0  27926-3 0  9992
2 44273  53.0003 318.7831 0006112 142.5678 217.5756 15.48564561 30446
Epoch (UTC): 06 December 2019 11:08:20
Eccentricity: 0.0006112
inclination: 53.0003°
perigee height: 417 km
apogee height: 425 km
right ascension of ascending node: 318.7831°
argument of perigee: 142.5678°
revolutions per day: 15.48564561
mean anomaly at epoch: 217.5756°
orbit number at epoch: 3044

The dashed part of the orbit path shows where the satellite is in the earth's shadow,  

DLR